DELTA 1 DEB, 7198

Orbit data source: Space-Track

DELTA 1 DEB, 7198 is space debris in SSO originally from a launch on Tue, 06 Nov 1973 UTC launched from the Air Force Western Test Range (AFWTR). Debris objects in space refer to the collection of defunct objects orbiting the Earth. Examples of debris include non-operational satellites, rocket bodies, and fragments generated from explosions, collisions, or faulty payload assembly.

Loading next visibility...
Identifier
7198, 1973-086FG
Orbit
SSO
Country
Flag of USUS
Related business
Manufacturer
Unknown
Mission
Spacecraft
Bus & Motor
Unknown
Mass
Unknown
Launch date (UTC)
1973-11-06 (53 years ago)
Launch vehicle
Unknown
Launch site
Air Force Western Test Range (AFWTR)
Object type
Payload
Rocket body
Debris
Shape & HBR
Unknown shape, 0.1 m
Radar Cross Section
Medium (>0.1 m² and <1 m²)

Expand to show TLE details & history
Last TLE update: 16 hours ago

TLE from 16 hours ago
0 DELTA 1 DEB
1  7198U 73086FG  26209.14199229  .00001113  00000-0  42656-2 0  9996
2  7198 102.3281 170.0323 0144413  81.1220 293.8768 12.89863513464004
Epoch: 2026-07-28T03:24Z
TLE epoch observation values (Epoch: 2026-07-28T03:24:28.133Z)
Latitude
13.12712°
Longitude
170.19287°
Altitude
1,260.379 km
Speed
7.247 km/s
True Right ascension
11h 08m 30s
True Declination
13° 03' 23"
Sunlit
Object was in daylight at epoch
Visualization orbit readout
Latitude
Unknown
Longitude
Unknown
Altitude
Unknown
Speed
Unknown
Apparent Right ascension
Unknown
Apparent Declination
Unknown
Sunlit
N/A
Visualization observer readout
Local Sidereal Time
08:42:52
Azimuth
Unknown
Elevation
Unknown
Doppler factor
Unknown
Orbital elements
Apogee altitude
1,410.471 km
Perigee altitude
1,188.718 km
Semi-major axis
7,677.732 km
Eccentricity
0.01444
Inclination
102.3281°
RAAN
170.0323°
Arg. of periapsis
81.122°
True anomaly
292.35262°
Mean anomaly
293.8768°
Eccentric anomaly
293.11581°
Mean motion
3.22622 °/min
Orbital period
111.59 mins
BSTAR
0.0042656
Loading maneuver chart data...
Computing Atmospheric mass density...
Loading historical data...
Loading historical data...
Loading historical data...
Loading historical data...
Loading historical data...
Loading historical data...
Loading historical data...

Documentation

Showing up to 5 results
|